Nassau, Bahamas

2:31 AM EDT on October 19, 2017 (GMT -0400)
Nassau

Weather History for 78073 - April, 2014

Change the Weather History Date:

Thursday, April 10, 2014

  Actual Average Record
Temperature  
Mean Temperature 76 °F -  
Max Temperature 83 °F 83 °F - ()
Min Temperature 70 °F 67 °F - ()
Cooling Degree Days 12    
Growing Degree Days 26 (Base 50)    
Moisture  
Dew Point 57 °F    
Average Humidity 54    
Maximum Humidity 66    
Minimum Humidity 44    
Precipitation  
Precipitation 0.00 in 0.10 in - ()
Sea Level Pressure  
Sea Level Pressure 30.19 in    
Wind  
Wind Speed 9 mph ()    
Max Wind Speed 16 mph    
Max Gust Speed 23 mph    
Visibility 6.8 miles    
Events      
T = Trace of Precipitation, MM = Missing Value Source: Averaged Metar Reports

Daily Weather History Graph

Daily Weather History Graph

Search for Another Location

Airport or City:

Trip Planner

Search our weather history database for the weather conditions in past years. The results will help you decide how hot, cold, wet, or windy it might be!

Date:

Astronomy

Apr. 10, 2014 Rise Set
Actual Time 6:52 AM EDT 7:30 PM EDT
Civil Twilight 6:29 AM EDT 7:53 PM EDT
Nautical Twilight 6:02 AM EDT 8:20 PM EDT
Astronomical Twilight 5:34 AM EDT 8:48 PM EDT
Moon 3:37 PM EDT (4/10) 3:47 AM EDT (4/10)
Length of Visible Light 13h 24m
Length of Day
12h 37m
Waxing Gibbous, 79% of the Moon is Illuminated
Apr 10
Waxing Gibbous
Apr 15
Full
Apr 22
Last Quarter
Apr 29
New
May 6
First Quarter

Hourly Weather History & Observations

Time (EDT) Temp. Dew Point Humidity Pressure Visibility Wind Dir Wind Speed Gust Speed Precip Events Conditions
12:00 AM 71.6 °F 53.6 °F 53% 30.15 in 6.2 mi North 9.2 mph 21.9 mph N/A   Mostly Cloudy
1:00 AM 71.6 °F 53.6 °F 53% 30.15 in 6.2 mi North 9.2 mph - N/A   Scattered Clouds
2:00 AM 71 °F 57 °F 51% 30.14 in 9 mi NNE 9.2 mph - -   Mostly Cloudy
2:00 AM 71.6 °F 57.2 °F 60% 30.14 in 6.2 mi NNE 9.2 mph 23.0 mph N/A   Mostly Cloudy
3:00 AM 69.8 °F 51.8 °F 53% 30.14 in 6.2 mi NE 11.5 mph 23.0 mph N/A   Scattered Clouds
4:00 AM 69.8 °F 51.8 °F 53% 30.14 in 6.2 mi NE 9.2 mph - N/A   Scattered Clouds
5:00 AM 70 °F 58 °F 57% 30.14 in 9 mi NE 9.2 mph - -   Partly Cloudy
5:00 AM 69.8 °F 57.2 °F 64% 30.14 in 6.2 mi NE 9.2 mph - N/A   Scattered Clouds
6:00 AM 69.8 °F 53.6 °F 56% 30.16 in 6.2 mi NE 9.2 mph - N/A   Scattered Clouds
7:00 AM 69.8 °F 53.6 °F 56% 30.17 in 6.2 mi NE 9.2 mph - N/A   Scattered Clouds
8:00 AM 72 °F 58 °F 53% 30.20 in 9 mi NE 9.2 mph - -   Partly Cloudy
8:00 AM 71.6 °F 59.0 °F 64% 30.19 in 6.2 mi NE 9.2 mph - N/A   Mostly Cloudy
9:00 AM 73.4 °F 57.2 °F 57% 30.22 in 6.2 mi NE 9.2 mph - N/A   Mostly Cloudy
10:00 AM 77 °F 61 °F 48% 30.25 in 9 mi Calm Calm - -   Partly Cloudy
10:00 AM 75.2 °F 57.2 °F 53% 30.24 in 6.2 mi NE 13.8 mph - N/A   Mostly Cloudy
11:00 AM 77.0 °F 60.8 °F 57% 30.25 in 6.2 mi East 16.1 mph - N/A   Mostly Cloudy
12:00 PM 75.2 °F 57.2 °F 53% 30.24 in 6.2 mi ENE 13.8 mph - N/A   Mostly Cloudy
1:00 PM 75.2 °F 55.4 °F 50% 30.24 in 6.2 mi East 13.8 mph - N/A   Mostly Cloudy
2:00 PM 77 °F 62 °F 49% 30.23 in 9 mi East 16.1 mph - -   Partly Cloudy
2:00 PM 77.0 °F 60.8 °F 57% 30.22 in 6.2 mi East 16.1 mph - N/A   Mostly Cloudy
3:00 PM 77.0 °F 55.4 °F 47% 30.20 in 6.2 mi NE 11.5 mph - N/A   Mostly Cloudy
4:00 PM 77.0 °F 53.6 °F 44% 30.19 in 6.2 mi NE 11.5 mph - N/A   Mostly Cloudy
5:00 PM 76 °F 62 °F 52% 30.19 in 9 mi ENE 11.5 mph - -   Partly Cloudy
5:00 PM 77.0 °F 60.8 °F 57% 30.18 in 6.2 mi ENE 11.5 mph - N/A   Mostly Cloudy
6:00 PM 77.0 °F 53.6 °F 44% 30.19 in 6.2 mi NE 9.2 mph - N/A   Mostly Cloudy
7:00 PM 73.4 °F 55.4 °F 53% 30.20 in 6.2 mi ENE 9.2 mph - N/A   Mostly Cloudy
8:00 PM 76 °F 67 °F 66% 30.15 in 8 mi East 11.5 mph - -   Partly Cloudy
8:00 PM 73.4 °F 60.8 °F 65% 30.21 in 6.2 mi East 8.1 mph - N/A   Mostly Cloudy
9:00 PM 73.4 °F 55.4 °F 53% 30.22 in 6.2 mi East 9.2 mph - N/A   Mostly Cloudy
10:00 PM 71.6 °F 55.4 °F 57% 30.24 in 6.2 mi East 8.1 mph - N/A   Mostly Cloudy